This is the latest recevied weather packets stored in our database for station/object DO8TBO-15. If no packets are shown the sender has not sent any weather packets the latest 10 day(s).
| Time | Temp. | Humidity | Pressure | Rain* | Wind** | Luminosity | Snow |
|---|---|---|---|---|---|---|---|
| 1777241137 | 7.78° C | - | 1023.6 hPa | 0 mm | - | - | - |
| 1777240533 | 8.33° C | - | 1023.6 hPa | 0 mm | - | - | - |
| 1777239929 | 8.33° C | - | 1023.5 hPa | 0 mm | - | - | - |
| 1777239325 | 8.33° C | - | 1023.5 hPa | 0 mm | - | - | - |
| 1777238721 | 8.33° C | - | 1023.5 hPa | 0 mm | - | - | - |
| 1777238118 | 8.33° C | - | 1023.5 hPa | 0 mm | - | - | - |
| 1777237574 | 8.89° C | - | 1023.5 hPa | 0 mm | - | - | - |
| 1777236970 | 8.89° C | - | 1023.4 hPa | 0 mm | - | - | - |
| 1777236367 | 8.89° C | - | 1023.3 hPa | 0 mm | - | - | - |
| 1777235763 | 8.89° C | - | 1023.4 hPa | 0 mm | - | - | - |
| 1777235160 | 8.89° C | - | 1023.2 hPa | 0 mm | - | - | - |
| 1777234555 | 8.33° C | - | 1023.3 hPa | 0 mm | - | - | - |
| 1777233952 | 8.89° C | - | 1023.3 hPa | 0 mm | - | - | - |
| 1777233349 | 9.44° C | - | 1023.2 hPa | 0 mm | - | - | - |
| 1777232745 | 9.44° C | - | 1023 hPa | 0 mm | - | - | - |
| 1777232140 | 9.44° C | - | 1022.9 hPa | 0 mm | - | - | - |
| 1777231537 | 10° C | - | 1022.9 hPa | 0 mm | - | - | - |
| 1777230933 | 10.56° C | - | 1022.8 hPa | 0 mm | - | - | - |
| 1777230329 | 11.11° C | - | 1022.7 hPa | 0 mm | - | - | - |
| 1777229726 | 11.67° C | - | 1022.5 hPa | 0 mm | - | - | - |
| 1777229122 | 12.22° C | - | 1022.4 hPa | 0 mm | - | - | - |
| 1777228518 | 12.78° C | - | 1022.3 hPa | 0 mm | - | - | - |
| 1777227975 | 13.33° C | - | 1022.3 hPa | 0 mm | - | - | - |
| 1777227370 | 13.89° C | - | 1022.3 hPa | 0 mm | - | - | - |
| 1777226766 | 15.56° C | - | 1022.2 hPa | 0 mm | - | - | - |
* Rain latest hour (hover to see other rain measurements)
** Current wind speed in m/s (hover to see current wind gust speed)